Regional Weather Roundup
Issued by NWS

Home | Current Version | Previous Version | Graphics & Text | Print | Product List | Glossary On
Versions: 1 2 3 4 5 6 7 8 9 10 11 12 13 14 15 16 17 18 19 20 21 22 23 24 25 26 27 28 29 30 31 32 33 34 35 36 37 38 39 40 41 42 43 44 45 46 47 48 49 50
588
ASUS43 KOAX 290202
RWRNE

WEATHER ROUNDUP FOR NEBRASKA
NATIONAL WEATHER SERVICE OMAHA NE
900 PM CDT WED JUN 28 2017

NOTES: SATELLITE DATA IS BEING USED TO AUGMENT CLOUD COVER ABOVE
       12000 FEET.
       "FAIR" INDICATES FEW OR NO CLOUDS BELOW 12,000 FEET WITH NO
       SIGNIFICANT WEATHER AND/OR OBSTRUCTIONS TO VISIBILITY.

  * THESE STATIONS DO NOT REPORT WEATHER SUCH AS RAIN...SNOW OR FOG.

NEZ001>004-019>022-054>056-290300-
NEBRASKA PANHANDLE

CITY           SKY/WX    TMP DP  RH WIND       PRES   REMARKS
SCOTTSBLUFF    CLOUDY    77  45  32 SE10      29.75S
ALLIANCE       CLOUDY    75  51  43 SE10      29.76S
CHADRON        MOCLDY    77  49  37 VRB6      29.74R THUNDER
GORDON         FAIR      72  53  51 SE7       29.77R
SIDNEY         TSTM      72  54  53 NE8       29.84R
$$

NEZ057>060-069>072-079>082-290300-
SOUTHWEST NEBRASKA

CITY           SKY/WX    TMP DP  RH WIND       PRES   REMARKS
NORTH PLATTE   PTCLDY    77  57  50 E7        29.75S
IMPERIAL       CLOUDY    79  50  36 S6        29.79R
LEXINGTON      CLOUDY    79  66  64 SE3       29.75F
MCCOOK         CLOUDY    82  57  42 E12       29.74R
OGALLALA       PTCLDY    80  48  33 E6        29.76F
$$

NEZ005>010-023>029-035>040-094-290300-
NORTH CENTRAL NEBRASKA

CITY           SKY/WX    TMP DP  RH WIND       PRES   REMARKS
VALENTINE      PTCLDY    83  43  24 NE7       29.74R
AINSWORTH      CLOUDY    79  55  43 CALM      29.76R
BROKEN BOW     CLOUDY    74  61  63 N10       29.78R
O`NEILL        CLEAR     78  61  55 CALM      29.72S
ORD            CLOUDY    77  58  51 W8        29.75R
THEDFORD       CLOUDY    80  47  31 E7        29.77F
$$

NEZ041-046>049-061>064-073>077-083>087-290300-
SOUTH CENTRAL NEBRASKA

CITY           SKY/WX    TMP DP  RH WIND       PRES   REMARKS
GRAND ISLAND   CLEAR     77  67  71 S6        29.73R
AURORA         CLEAR     78  65  62 SW5       29.72S
HASTINGS       PTCLDY    81  62  52 N7        29.75R
HEBRON         CLEAR     83  68  60 N3        29.70R
HOLDREGE       CLOUDY    78  65  66 SE5       29.76R
KEARNEY *      MOCLDY    79  64  61 S6        29.76R
YORK           PTCLDY    77  66  69 W7        29.72R
$$

NEZ011>018-030>034-042>045-290300-
NORTHEAST NEBRASKA

CITY           SKY/WX    TMP DP  RH WIND       PRES   REMARKS
NORFOLK        CLEAR     77  65  66 SW3       29.68R
ALBION         PTCLDY    77  66  67 CALM      29.72R
BLAIR          CLEAR     80  66  61 W5        29.67R
FREMONT        CLEAR     81  65  58 SW3       29.68R
TEKAMAH        CLEAR     79  66  64 NW8       29.65R
WAYNE          CLEAR     80  69  70 CALM      29.68R
$$

NEZ050>053-065>068-078-088>093-290300-
SOUTHEAST NEBRASKA

CITY           SKY/WX    TMP DP  RH WIND       PRES   REMARKS
LINCOLN        CLEAR     82  64  54 NW3       29.68R
OMAHA EPPLEY   PTCLDY    81  63  54 NW7       29.64S
BEATRICE       PTCLDY    81  74  79 CALM      29.68S
FALLS CITY     CLEAR     84  67  56 SW13G28   29.64R
NEBRASKA CITY  CLOUDY    80  73  79 CALM      29.66R
PLATTSMOUTH    PTCLDY    80  67  64 W5        29.66S
$$

NEZ044-045-051>053-067-290300-
OMAHA AREA

CITY           SKY/WX    TMP DP  RH WIND       PRES   REMARKS
OMAHA EPPLEY   PTCLDY    81  63  54 NW7       29.64S
BLAIR          CLEAR     80  66  61 W5        29.67R
FREMONT        CLEAR     81  65  58 SW3       29.68R
MILLARD        CLEAR     82  67  60 NW3       29.65S
OFFUTT AFB     MOCLDY    76  66  69 NW6       29.64R
PLATTSMOUTH    PTCLDY    80  67  64 W5        29.66S
WAHOO          FAIR      79  68  69 W5        29.68R
$$




USA.gov is the U.S. government's official web portal to all federal, state and local government web resources and services.